Regional Weather Roundup
Issued by NWS Grand Forks, ND

Home | Current Version | Previous Version | Text Only | Print | Product List | Glossary On
Versions: 1 2 3 4 5 6 7 8 9 10 11 12 13 14 15 16 17 18 19 20 21 22 23 24 25 26 27 28 29 30 31 32 33 34 35 36 37 38 39 40 41 42 43 44 45 46 47 48 49 50
000
ASUS43 KFGF 020931
RWRFGF
PRAIRIE TO PINES  WEATHER ROUNDUP
NATIONAL WEATHER SERVICE EASTERN NORTH DAKOTA/GRAND FORKS ND
400 AM CDT SAT AUG 02 2014

 **SATELLITE DATA USED TO AUGMENT SKY COVER AT AUTOMATED STATIONS**
 *****  WEATHER ACROSS EASTERN NORTH DAKOTA  *****

CITY           SKY/WX    TMP DP  RH WIND       PRES   REMARKS
GRAND FORKS    CLEAR     57  55  93 S5        30.07S
GRAND FRKS AFB CLEAR     60  60  99 SW6       30.08S
GRAND FRKS NWS   N/A     61 N/A N/A SW3         N/A
DEVILS LAKE    PTCLDY    66  55  68 S6        30.08S
FARGO          CLEAR     59  57  93 CALM      30.09R FOG
WAHPETON ARPT  MOSUNNY   59  55  88 CALM      30.10R
$$

 ***** WEATHER ACROSS CENTRAL AND WESTERN NORTH DAKOTA  *****

CITY           SKY/WX    TMP DP  RH WIND       PRES   REMARKS
BISMARCK       CLEAR     60  59  96 CALM      30.10S
MINOT          CLEAR     61  58  90 SW5       30.06F
JAMESTOWN      CLOUDY    66  59  78 S5        30.10S
MINOT AFB      CLEAR     58  58 100 CALM      30.06F
GARRISON         N/A     59  57  93 SW3       30.08F
WILLISTON      CLOUDY    66  57  72 N13       30.10R
DICKINSON      PTCLDY    58  55  90 W3        30.11F
HETTINGER      PTCLDY    61  57  87 SE7       30.13S
$$

 *****  OTHER AIRPORT OBSERVATIONS IN OUR AREA  *****

CITY           SKY/WX    TMP DP  RH WIND       PRES   REMARKS
WALHALLA         N/A     64  64 100 SE3         N/A
GRAFTON AIRPOR FAIR      61  59  94 SW6       30.07S
VALLEY CITY AR PTSUNNY   63  63 100 W7        30.11R
CANDO          FAIR      57  57 100 SE3       30.09F
CAVALIER APRT  FAIR      63  57  82 SW6       30.07S
GWINNER          N/A     64  64 100 CALM      30.10S
SHEYENNE NWR     N/A     56  55  98 CALM      29.95S
ROLLA          PTSUNNY   57  57 100 SW3       30.11S
 ***** THE ABOVE OBSERVATIONS ARE NON NWS ARE NOT QUALITY
       CONTROLLED AND MAY MIS-REPORT RAIN FOR SNOW...
$$

  *****  WEATHER ACROSS NORTHERN MINNESOTA  *****

CITY           SKY/WX    TMP DP  RH WIND       PRES   REMARKS
FLAG ISLAND    PTCLDY    66  57  72 SW12      30.05S
WARROAD        CLEAR     61  55  82 SW6       30.08S
ROSEAU         CLEAR     57  54  88 S5        30.07F
HALLOCK        CLEAR     59  57  94 S3        30.07R
THF RVR FALLS  CLEAR     57  55  94 S5        30.09F
BAUDETTE       CLEAR     55  47  74 CALM      30.10R
WASKISH        CLEAR     48  46  93 CALM      30.10S
CROOKSTON      CLEAR     57  55  94 S5        30.09S
$$
  *****  WEATHER ACROSS CENTRAL AND WEST MINNESOTA  *****

CITY           SKY/WX    TMP DP  RH WIND       PRES   REMARKS
FOSSTON        CLEAR     54  48  82 CALM      30.11S FOG
BEMIDJI        FOG       51  50  98 W3        30.11S VSB 3/4
PARK RAPIDS    CLEAR     56  54  93 CALM      30.11S
ELBOW LAKE     FAIR      65  61  87 E3        30.10S
WADENA         CLEAR     54  54 100 CALM      30.10S FOG
DETROIT LAKES  CLEAR     61  59  94 CALM      30.12S
MOORHEAD       CLEAR     61  61 100 CALM      30.10R
FERGUS FALLS   CLEAR     63  57  82 CALM      30.10R
MORRIS MN      PTCLDY    57  57 100 CALM      30.10R FOG
STAPLES        CLEAR     57  55  94 CALM      30.11S
$$
  *****  WEATHER ELSEWHERE ACROSS MINNESOTA  *****

CITY           SKY/WX    TMP DP  RH WIND       PRES   REMARKS
DULUTH         CLEAR     55  50  83 E5        30.12S
INTRNTL FALLS  CLEAR     45  45 100 CALM      30.09S
ELY            CLEAR     46  45  93 CALM      30.12S
CLOQUET        CLEAR     52  48  87 CALM      30.12S
WHEATON        PTCLDY    57  55  94 E3        30.12R
BRAINERD       PTCLDY    58  57  97 CALM      30.11S FOG
HIBBING        FOG       48  47  96 CALM      30.12S VSB 3/4
ALEXANDRIA     CLEAR     63  61  93 CALM      30.12S
SAINT CLOUD    FOG       59  57  94 CALM      30.10S VSB 1/4
MINNEAPOLIS    CLEAR     68  63  84 CALM      30.10R
$$

  *****  WEATHER ACROSS SOUTH DAKOTA  *****

CITY           SKY/WX    TMP DP  RH WIND       PRES   REMARKS
SIOUX FALLS    PTCLDY    61  57  87 CALM      30.11F
BROOKINGS      NOT AVBL
WATERTOWN      PTCLDY    61  57  87 SE3       30.12R
HURON          CLOUDY    67  58  72 NW8       30.12R
SISSETON         N/A     60  59  96 CALM      30.09R
ABERDEEN       CLOUDY    64  60  87 W3        30.09F
MITCHELL       MOCLDY    63  60  90 SE8       30.07S
PIERRE         MOCLDY    65  60  84 E9        30.07F
MOBRIDGE       MOCLDY    65  61  87 S7        30.05S
RAPID CITY     PTCLDY    70  50  49 NW12      30.10R
$$

  *****  SOME WEATHER IN NEARBY STATES *****

CITY           SKY/WX    TMP DP  RH WIND       PRES   REMARKS
GLASGOW MT     CLEAR     60  55  83 W3        30.15S
GREAT FALLS MT CLOUDY    65  52  62 NW9       30.20R
CHEYENNE WY    CLEAR     55  47  74 W8        30.31R
SCOTTSBLUFF NE CLEAR     57  50  77 NW3       30.18R
OMAHA NE       MOCLDY    64  61  90 N6        30.13R
DES MOINES IA  CLEAR     64  59  83 W3        30.12R
DAVENPORT IA   CLEAR     58  57  97 S3        30.12S FOG
CHICAGO IL     PTCLDY    63  54  72 NW8       30.11R
EAU CLAIRE WI  FOG       59  58  96 CALM      30.10F VSB 1/2
LA CROSSE WI   CLEAR     63  58  83 E3        30.11R
$$

  *****  SOME NATIONAL WEATHER *****

CITY           SKY/WX    TMP DP  RH WIND       PRES   REMARKS
LA GUARDIA NY  LGT RAIN  69  65  86 NE5       30.17R
RALEIGH NC     DRIZZLE   64  63  94 NE3       30.10R FOG
ATLANTA GA     CLOUDY    66  63  88 NE7       30.06S
NEW ORLEANS LA CLOUDY    79  69  71 SE7       29.96S
OKLAHOMA CITY  PTCLDY    65  62  90 S3        30.10R
ALBUQUERQUE NM LGT RAIN  63  58  83 E14       30.27F
SALT LAKE CITY CLEAR     72  50  45 CALM      30.08F
LOS ANGELES CA CLOUDY    65  62  90 W6        29.90S FOG
BOISE ID       MOCLDY    76  47  35 SW3       30.04R
SEATTLE WA     PTCLDY    67  56  67 N5        29.97S
$$

*** WEATHER ACROSS MANITOBA...SASKATCHEWAN AND ONTARIO ***
                ***ONTARIO***

CITY           SKY/WX    TMP DP  RH WIND       PRES   REMARKS
GERALDTON      CLEAR     50  48  93 CALM      30.08F
THUNDER BAY    CLEAR     48  48 100 W2        30.11S
SIOUX LOOKOUT  PTCLDY    55  54  94 SW3       30.06S
TORONTO        PTCLDY    63  59  88 N5        30.12S
BIG TROUT LK   CLOUDY    61  54  77 E3        29.96F
PICKLE LAKE    NOT AVBL
DRYDEN         CLEAR     61  52  72 S8        30.06
KENORA         TSTM      64  61  88 W16G25    30.08
$$
                *** MANITOBA***

CITY           SKY/WX    TMP DP  RH WIND       PRES   REMARKS
BRANDON        MOCLDY    61  57  88 S5        30.08S
DAUPHIN        CLOUDY    64  63  94 W6        30.09R
ISLAND LAKE    MOCLDY    63  61  94 N7        29.97S
PILOT MOUND      N/A     54  52  94 S3          N/A
THE PAS        CLEAR     63  59  88 NW6       30.13R
THOMPSON       PTCLDY    48  48 100 N5        30.11R
WINNIPEG       PTCLDY    63  61  94 NW6       30.05R
LYNN LAKE      MOCLDY    52  46  82 N6        30.16R HAZE
CHURCHILL      PTCLDY    52  48  87 N10       30.12R
GILLAM         CLOUDY    54  52  94 N15       30.08R
$$
                ***SASKATCHEWAN***

CITY           SKY/WX    TMP DP  RH WIND       PRES   REMARKS
ESTEVAN        CLOUDY    63  61  94 N8        30.11R
KINDERSLEY     PTCLDY    55  55 100 NE8       30.21F
LLOYDMINSTER   CLEAR     55  52  88 SE3       30.22S FOG
PRINCE ALBERT  MOCLDY    52  52 100 NW2       30.20R
REGINA         MOCLDY    59  57  94 NE3       30.14S
YORKTON        CLEAR     59  57  94 W6        30.13R
N. BATTLEFORD  FOG       52  50  93 CALM      30.23F VSB 1/8
LA RONGE       PTCLDY    54  50  87 CALM      30.20R
SASKATOON      MOCLDY    57  57 100 N6        30.21S
SWIFT CURRENT  FOG       57  57 100 N6        30.20S VSB 3/8
$$
NOTE: THESE ARE AUTOMATED STATIONS WITH LIMITED QUALITY CONTROL
      "FAIR" INDICATES FEW OR NO CLOUDS BELOW 12,000 FEET WITH NO
      SIGNIFICANT WEATHER AND/OR OBSTRUCTIONS TO VISIBILITY.
      SKY/WX - SKY CONDITION AND SIGNIFICANT WEATHER.
      TMP - AIR TEMPERATURE.    DP   - DEWPOINT TEMPERATURE.
      RH  - RELATIVE HUMIDITY.  PRES - PRESSURE.
      HX  - HEAT INDEX.         WCI  - WIND CHILL INDEX.
$



USA.gov is the U.S. government's official web portal to all federal, state and local government web resources and services.